Cloud_Cover
97 100 100 83 100 100 85 0 0 4 2 5 9 49 5 5 68 76 81 99 18 5 6 18 5 5 5 2 0 6 24 5 5 6 98 39 9 5 18 49 50 61 73
69 40 8 99 100 100 5 0 1 5 5 5 3 5 5 5 35 23 10 71 5 5 5 5 5 13 5 5 1 4 14 42 93 60 64 100 5 5 19 5 5 76 72
99 68 24 59 100 100 5 0 5 5 5 1 0 0 0 4 5 5 37 52 5 5 5 5 5 5 5 37 5 5 5 8 94 77 86 92 95 5 5 5 5 53 5
97 100 82 100 100 61 5 1 18 8 1 2 3 0 0 3 5 5 7 30 5 5 5 4 5 5 5 42 5 5 25 98 88 63 100 89 99 43 5 12 5 10 5
25 100 12 81 100 100 18 5 5 7 0 0 0 0 10 7 4 5 5 5 5 5 6 5 21 79 100 25 5 6 8 13 27 96 98 100 37 5 9 8 5 7 75
5 80 100 100 100 100 4 4 5 5 0 0 0 0 8 1 0 5 5 5 5 20 99 100 100 96 100 100 9 100 92 55 32 29 46 77 5 44 90 66 5 5 55
4 53 100 100 100 90 0 3 0 7 1 5 5 0 0 0 0 0 1 5 10 98 100 100 100 100 100 100 98 13 99 86 73 65 16 37 8 5 44 26 51 100 98
0 8 73 66 6 5 36 18 2 0 3 4 0 0 5 31 0 1 0 9 100 100 100 100 100 100 100 100 100 5 5 52 10 90 94 28 28 28 11 98 100 100 100
0 0 0 4 5 5 0 0 0 0 0 0 0 3 3 100 5 2 0 38 100 100 100 100 100 100 100 100 26 4 5 100 3 1 11 78 18 17 26 55 100 92 88
0 0 0 0 0 0 5 0 0 0 0 0 0 0 0 18 77 0 5 67 100 100 100 100 100 100 100 100 18 100 82 100 10 5 5 90 48 3 4 5 4 14 100
0 0 0 0 0 0 0 4 1 0 0 0 0 0 0 0 5 1 6 100 100 100 78 97 100 100 100 56 14 95 100 92 100 54 59 23 42 8 37 2 4 5 5
0 0 0 0 0 0 0 0 0 2 0 0 0 0 0 0 5 0 23 78 100 100 100 100 100 100 98 69 4 35 49 96 100 100 100 100 100 97 29 5 5 2 5
0 0 0 0 0 0 0 0 0 0 0 0 0 0 1 56 0 0 83 51 76 100 97 100 81 97 96 100 42 61 71 100 100 100 100 100 100 11 7 1 5 18 5
0 0 0 0 0 0 0 0 0 0 0 0 0 0 0 0 0 10 3 13 46 68 100 97 98 42 32 87 100 47 70 99 100 100 100 100 100 100 45 5 5 44 100
0 4 0 0 0 0 0 0 0 0 0 0 0 0 0 0 0 100 15 28 75 5 11 84 8 73 95 100 100 100 100 100 100 100 100 100 100 100 100 100 88 80 49
0 0 0 0 0 0 0 0 0 0 0 0 0 0 0 0 0 2 0 2 87 0 38 40 7 100 100 94 100 100 100 100 100 100 100 100 100 100 100 100 96 56 24
0 0 0 0 0 0 0 0 0 0 0 0 0 0 0 0 0 0 0 8 98 98 68 77 10 100 100 28 100 100 100 100 100 100 100 100 100 100 100 100 100 10 56
0 0 0 0 0 0 0 0 0 0 0 0 0 0 0 0 0 1 0 0 84 19 98 84 21 100 100 31 100 100 100 100 100 100 100 100 100 100 100 100 100 85 24
0 0 0 0 0 0 0 0 0 0 0 0 0 0 0 5 22 92 6 0 0 0 0 3 78 93 100 96 100 100 100 100 100 100 100 100 100 100 100 100 100 100 100
0 0 0 0 0 0 0 0 0 0 0 0 0 0 0 0 3 100 0 0 8 0 0 0 52 100 100 100 100 100 98 99 100 100 100 100 100 100 100 100 100 100 100
0 0 0 0 0 0 0 3 4 0 0 0 0 0 0 0 62 100 0 21 0 0 62 6 52 90 44 100 100 100 100 100 100 98 100 100 100 100 100 100 100 100 100
0 0 0 0 0 0 0 0 0 4 8 0 0 0 0 26 39 15 0 0 21 1 3 8 39 41 68 30 100 100 100 90 100 99 100 100 100 100 100 100 100 100 100
0 0 0 0 0 0 0 0 0 0 5 1 0 0 0 0 12 0 0 0 0 0 2 2 3 31 99 85 99 40 97 98 100 99 99 97 100 100 100 100 100 100 100
0 0 0 0 0 0 0 0 1 5 81 56 5 0 0 0 37 0 0 0 0 0 0 0 2 0 51 16 24 100 16 100 100 83 61 96 100 100 100 100 100 100 100
0 0 0 0 0 0 0 0 0 0 6 31 5 0 5 1 0 0 0 0 0 0 0 0 2 13 5 14 66 100 100 100 100 100 100 100 100 100 100 100 100 100 100
0 0 0 0 0 0 0 0 0 0 6 38 6 0 0 0 0 0 0 0 0 3 0 0 8 53 72 100 100 100 100 100 100 100 100 100 100 100 100 100 100 100 100